When you browse on this site, cookies collect data to enhance your experience and personalize the content and advertising you see.
Visit our Privacy Policy to learn more. By continuing to use the site, you agree to this use of cookies and data.
  • In United Kingdom
  • List of Countries
  • For 7 days
  • Water Temperature
  • Weather Map
  • Weather Widgets
  • user-avatar
    Login

    Hourly Weather Newport

    Today, 7 June, Sunday

    Time Temperature Precipitation Wind Pressure Humidity
    00:00 +7°C° 0 mm 5 mps 750 mmHg 93%
    01:00 +7°C° 0 mm 5 mps 750 mmHg 93%
    02:00 +6°C° 0 mm 4 mps 750 mmHg 93%
    03:00 +6°C° 0 mm 4 mps 750 mmHg 93%
    04:00 +8°C° 0 mm 3 mps 750 mmHg 91%
    05:00 +8°C° 0 mm 3 mps 751 mmHg 89%
    06:00 +9°C° 0 mm 2 mps 751 mmHg 87%
    07:00 +12°C° 0 mm 2 mps 752 mmHg 81%
    08:00 +13°C° 0 mm 2 mps 752 mmHg 76%
    09:00 +15°C° 0 mm 2 mps 752 mmHg 70%
    10:00 +16°C° 0 mm 3 mps 753 mmHg 67%
    11:00 +16°C° 0 mm 3 mps 753 mmHg 63%
    12:00 +17°C° 0 mm 4 mps 753 mmHg 60%
    13:00 +17°C° 0.1 mm 4 mps 753 mmHg 63%
    14:00 +17°C° 0.1 mm 4 mps 754 mmHg 66%
    15:00 +16°C° 0.1 mm 5 mps 754 mmHg 69%
    16:00 +17°C° 0.3 mm 4 mps 754 mmHg 74%
    17:00 +15°C° 0.3 mm 4 mps 754 mmHg 79%
    18:00 +15°C° 0.3 mm 4 mps 755 mmHg 84%
    19:00 +13°C° 0.1 mm 4 mps 755 mmHg 86%
    20:00 +12°C° 0.1 mm 5 mps 756 mmHg 89%
    21:00 +10°C° 0.1 mm 5 mps 756 mmHg 91%
    22:00 +9°C° 0 mm 5 mps 757 mmHg 92%
    23:00 +9°C° 0 mm 5 mps 757 mmHg 92%

    Tomorrow, 8 June, Monday

    Time Temperature Precipitation Wind Pressure Humidity
    00:00 +8°C° 0 mm 5 mps 757 mmHg 93%
    01:00 +8°C° 0 mm 5 mps 757 mmHg 93%
    02:00 +7°C° 0 mm 5 mps 758 mmHg 93%
    03:00 +7°C° 0 mm 5 mps 758 mmHg 94%
    04:00 +7°C° 0 mm 5 mps 758 mmHg 93%
    05:00 +8°C° 0 mm 6 mps 758 mmHg 92%
    06:00 +8°C° 0 mm 6 mps 758 mmHg 91%
    07:00 +9°C° 0 mm 6 mps 759 mmHg 83%
    08:00 +12°C° 0 mm 5 mps 759 mmHg 75%
    09:00 +13°C° 0 mm 5 mps 760 mmHg 67%
    10:00 +14°C° 0 mm 4 mps 760 mmHg 63%
    11:00 +15°C° 0 mm 4 mps 760 mmHg 59%
    12:00 +17°C° 0 mm 3 mps 760 mmHg 56%
    13:00 +17°C° 0 mm 3 mps 760 mmHg 56%
    14:00 +17°C° 0 mm 4 mps 760 mmHg 56%
    15:00 +18°C° 0 mm 4 mps 760 mmHg 57%
    16:00 +17°C° 0 mm 4 mps 760 mmHg 59%
    17:00 +15°C° 0 mm 5 mps 760 mmHg 62%
    18:00 +15°C° 0 mm 5 mps 760 mmHg 64%
    19:00 +13°C° 0 mm 5 mps 761 mmHg 68%
    20:00 +12°C° 0 mm 5 mps 761 mmHg 71%
    21:00 +9°C° 0 mm 5 mps 761 mmHg 75%
    22:00 +10°C° 0 mm 4 mps 762 mmHg 76%
    23:00 +8°C° 0 mm 4 mps 762 mmHg 77%

    Day after tomorrow, 9 June, Tuesday

    Time Temperature Precipitation Wind Pressure Humidity
    00:00 +7°C° 0 mm 4 mps 762 mmHg 78%
    01:00 +8°C° 0 mm 3 mps 762 mmHg 79%
    02:00 +8°C° 0 mm 3 mps 762 mmHg 81%
    03:00 +7°C° 0 mm 3 mps 761 mmHg 82%
    04:00 +8°C° 0 mm 2 mps 762 mmHg 79%
    05:00 +9°C° 0 mm 2 mps 762 mmHg 76%
    06:00 +9°C° 0 mm 2 mps 762 mmHg 72%
    07:00 +12°C° 0 mm 2 mps 762 mmHg 67%
    08:00 +13°C° 0 mm 2 mps 762 mmHg 62%
    09:00 +14°C° 0 mm 2 mps 763 mmHg 57%
    10:00 +15°C° 0 mm 2 mps 763 mmHg 58%
    11:00 +15°C° 0 mm 2 mps 762 mmHg 58%
    12:00 +16°C° 0 mm 2 mps 762 mmHg 58%
    13:00 +16°C° 0 mm 2 mps 762 mmHg 60%
    14:00 +16°C° 0 mm 3 mps 762 mmHg 61%
    15:00 +15°C° 0 mm 4 mps 762 mmHg 63%
    16:00 +14°C° 0 mm 4 mps 762 mmHg 66%
    17:00 +14°C° 0 mm 4 mps 762 mmHg 69%
    18:00 +14°C° 0 mm 5 mps 761 mmHg 73%
    19:00 +13°C° 0 mm 4 mps 762 mmHg 76%
    20:00 +12°C° 0 mm 4 mps 762 mmHg 79%
    21:00 +12°C° 0 mm 4 mps 762 mmHg 83%
    22:00 +11°C° 0 mm 3 mps 762 mmHg 84%
    23:00 +11°C° 0 mm 3 mps 761 mmHg 85%

    10 June, Wednesday

    Time Temperature Precipitation Wind Pressure Humidity
    00:00 +12°C° 0 mm 2 mps 761 mmHg 86%
    01:00 +12°C° 0 mm 2 mps 761 mmHg 87%
    02:00 +12°C° 0 mm 2 mps 761 mmHg 88%
    03:00 +11°C° 0 mm 3 mps 760 mmHg 89%
    04:00 +11°C° 0 mm 3 mps 760 mmHg 88%
    05:00 +11°C° 0 mm 3 mps 760 mmHg 87%
    06:00 +12°C° 0 mm 3 mps 760 mmHg 86%
    07:00 +13°C° 0.1 mm 2 mps 760 mmHg 83%
    08:00 +14°C° 0.1 mm 2 mps 759 mmHg 79%
    09:00 +15°C° 0.1 mm 1 mps 759 mmHg 75%
    10:00 +14°C° 0.3 mm 2 mps 759 mmHg 79%
    11:00 +13°C° 0.3 mm 3 mps 759 mmHg 82%
    12:00 +13°C° 0.3 mm 4 mps 759 mmHg 85%
    13:00 +13°C° 0.2 mm 4 mps 758 mmHg 85%
    14:00 +12°C° 0.2 mm 4 mps 757 mmHg 85%
    15:00 +12°C° 0.2 mm 4 mps 757 mmHg 85%
    16:00 +12°C° 0 mm 4 mps 756 mmHg 85%
    17:00 +12°C° 0 mm 4 mps 756 mmHg 85%
    18:00 +11°C° 0 mm 4 mps 755 mmHg 86%
    19:00 +10°C° 0.3 mm 5 mps 755 mmHg 89%
    20:00 +10°C° 0.3 mm 5 mps 755 mmHg 91%
    21:00 +10°C° 0.3 mm 5 mps 754 mmHg 94%
    22:00 +10°C° 0.8 mm 6 mps 753 mmHg 94%
    23:00 +10°C° 0.8 mm 6 mps 753 mmHg 93%

    11 June, Thursday

    Time Temperature Precipitation Wind Pressure Humidity
    00:00 +10°C° 0.8 mm 7 mps 752 mmHg 93%
    01:00 +10°C° 1.2 mm 6 mps 751 mmHg 94%
    02:00 +10°C° 1.2 mm 5 mps 750 mmHg 95%
    03:00 +10°C° 1.2 mm 5 mps 749 mmHg 96%
    04:00 +11°C° 2.6 mm 4 mps 748 mmHg 96%
    05:00 +10°C° 2.6 mm 3 mps 748 mmHg 97%
    06:00 +10°C° 2.6 mm 2 mps 747 mmHg 97%
    07:00 +11°C° 2 mm 3 mps 747 mmHg 97%
    08:00 +11°C° 2 mm 4 mps 746 mmHg 96%
    09:00 +10°C° 2 mm 5 mps 746 mmHg 96%
    10:00 +10°C° 0.9 mm 5 mps 745 mmHg 94%
    11:00 +10°C° 0.9 mm 5 mps 745 mmHg 92%
    12:00 +12°C° 0.9 mm 4 mps 745 mmHg 90%
    13:00 +12°C° 0.2 mm 4 mps 745 mmHg 87%
    14:00 +12°C° 0.2 mm 4 mps 745 mmHg 84%
    15:00 +13°C° 0.2 mm 4 mps 745 mmHg 81%
    16:00 +13°C° 0.1 mm 4 mps 745 mmHg 81%
    17:00 +13°C° 0.1 mm 4 mps 745 mmHg 81%
    18:00 +13°C° 0.1 mm 4 mps 745 mmHg 81%
    19:00 +12°C° 0 mm 4 mps 745 mmHg 84%
    20:00 +11°C° 0 mm 3 mps 745 mmHg 87%
    21:00 +10°C° 0 mm 2 mps 746 mmHg 90%
    22:00 +9°C° 0 mm 2 mps 746 mmHg 90%
    23:00 +9°C° 0 mm 2 mps 746 mmHg 90%

    12 June, Friday

    Time Temperature Precipitation Wind Pressure Humidity
    00:00 +9°C° 0 mm 2 mps 746 mmHg 90%
    01:00 +8°C° 0 mm 2 mps 746 mmHg 92%
    02:00 +8°C° 0 mm 2 mps 746 mmHg 93%
    03:00 +8°C° 0 mm 2 mps 746 mmHg 94%
    04:00 +8°C° 0 mm 3 mps 746 mmHg 93%
    05:00 +9°C° 0 mm 3 mps 746 mmHg 92%
    06:00 +10°C° 0 mm 3 mps 747 mmHg 91%
    07:00 +11°C° 0 mm 3 mps 747 mmHg 84%
    08:00 +14°C° 0 mm 2 mps 747 mmHg 77%
    09:00 +15°C° 0 mm 2 mps 747 mmHg 70%
    10:00 +16°C° 0.1 mm 2 mps 748 mmHg 68%
    11:00 +16°C° 0.1 mm 3 mps 748 mmHg 66%
    12:00 +17°C° 0.1 mm 4 mps 748 mmHg 64%
    13:00 +17°C° 0.1 mm 4 mps 748 mmHg 65%
    14:00 +17°C° 0.1 mm 4 mps 749 mmHg 66%
    15:00 +17°C° 0.1 mm 5 mps 749 mmHg 66%
    16:00 +16°C° 0.1 mm 5 mps 749 mmHg 70%
    17:00 +16°C° 0.1 mm 5 mps 749 mmHg 74%
    18:00 +15°C° 0.1 mm 5 mps 750 mmHg 78%
    19:00 +14°C° 0 mm 5 mps 750 mmHg 81%
    20:00 +13°C° 0 mm 5 mps 750 mmHg 85%
    21:00 +12°C° 0 mm 4 mps 751 mmHg 88%
    22:00 +12°C° 0 mm 4 mps 751 mmHg 89%
    23:00 +11°C° 0 mm 3 mps 751 mmHg 91%
    Show more